Location: Newark
(36.0797°N, 3.9744°E)
Time: 13:28:13
(UTC+00:00)

deb Explorer IX - Visible Passes

Search period start: 15 December 2019 00:00
Search period end: 25 December 2019 00:00
Orbit: 546 x 1104 km, 38.8° (Epoch: 14 December)

Date Brightness Start Highest point End Pass type
(mag) Time Alt. Az. Time Alt. Az. Time Alt. Az.
15 Dec ? 18:02:57 10° WNW 18:09:06 86° SSW 18:13:12 26° ESE visible
15 Dec ? 19:50:17 10° W 19:54:36 33° WSW 19:54:36 33° WSW visible
16 Dec ? 17:40:59 10° WNW 17:46:57 85° SSW 17:52:54 14° ESE visible
16 Dec ? 19:28:15 10° W 19:34:06 36° SSW 19:34:19 36° SSW visible
17 Dec ? 17:19:01 10° WNW 17:24:48 84° SSW 17:31:34 10° ESE visible
17 Dec ? 19:06:15 10° W 19:11:55 35° SSW 19:14:15 28° S visible
18 Dec ? 16:57:04 10° WNW 17:02:41 83° SSW 17:09:17 10° ESE visible
18 Dec ? 18:44:16 10° W 18:49:45 34° SSW 18:54:28 16° SSE visible
19 Dec ? 18:22:18 10° W 18:27:36 32° SSW 18:33:31 10° SSE visible
20 Dec ? 18:00:22 10° W 18:05:26 31° SSW 18:11:11 10° SSE visible
21 Dec ? 17:38:26 10° W 17:43:18 30° SSW 17:48:49 10° SSE visible
22 Dec ? 17:16:31 10° W 17:21:10 28° SSW 17:26:28 10° SSE visible
23 Dec ? 16:54:36 10° W 16:59:04 27° SSW 17:04:06 10° SSE visible
